STARLINK-36850, 68119

Orbit data source: Space-Track

STARLINK-36850, 68119 is a payload satellite owned by SpaceX/Seattle (US) in SSO that was launched on Sun, 08 Mar 2026 UTC via an FALCON 9 launch vehicle from the Air Force Western Test Range (AFWTR). Payload-class satellites include a variety of spacecraft equipped with specific instruments for various scientific and technological missions. These include communications satellites like Starlink; space stations such as the ISS; scientific satellites like the Hubble; Earth observation satellites from companies like Planet Labs, Umbra, and HawkEye 360; GPS; miniature CubeSats for education and research; and military/defense satellites.

Loading next visibility...
Identifier
68119, 2026-044U
Orbit
SSO
Country
Flag of USUS
Related business
Manufacturer
SpaceX/Seattle
Mission
Operational spacecraft
Bus & Motor
STARLINK V2MO, Unknown motor
Mass
575 kg wet, ~530 kg dry
Launch date (UTC)
2026-03-08 (2 months ago)
Launch vehicle
FALCON 9
Launch site
Air Force Western Test Range (AFWTR)
Object type
Payload
Rocket body
Debris
Shape & HBR
Unknown shape, 17.7 m
Radar Cross Section
RCS unknown

Expand to show TLE details & history
Last TLE update: 19 hours ago

TLE from 19 hours ago
0 STARLINK-36850
1 68119U 26044U   26134.64424493  .00025645  00000-0  79490-3 0  9997
2 68119  97.2859  95.4643 0002155 111.8604 248.2868 15.33406582 11694
Epoch: 2026-05-14T15:27Z
TLE epoch observation values (Epoch: 2026-05-14T15:27:42.761Z)
Latitude
-0.00006°
Longitude
-8.85082°
Altitude
469.315 km
Speed
7.631 km/s
True Right ascension
06h 21m 51s
True Declination
0° 00' 00"
Sunlit
Object was in daylight at epoch
Visualization orbit readout
Latitude
Unknown
Longitude
Unknown
Altitude
Unknown
Speed
Unknown
Apparent Right ascension
Unknown
Apparent Declination
Unknown
Sunlit
N/A
Visualization observer readout
Local Sidereal Time
19:08:46
Azimuth
Unknown
Elevation
Unknown
Doppler factor
Unknown
Orbital elements
Apogee altitude
464.075 km
Perigee altitude
461.126 km
Semi-major axis
6,840.737 km
Eccentricity
0.00022
Inclination
97.2859°
RAAN
95.4643°
Arg. of periapsis
111.8604°
True anomaly
248.26386°
Mean anomaly
248.2868°
Eccentric anomaly
248.27533°
Mean motion
3.83609 °/min
Orbital period
93.85 mins
BSTAR
0.0007949
Loading maneuver chart data...
Computing Atmospheric mass density...
Loading historical data...
Loading historical data...
Loading historical data...
Loading historical data...
Loading historical data...
Loading historical data...
Loading historical data...

Documentation

Showing up to 5 results
|